Other Public Products
Issued by NWS Charleston, SC

Current Version | Previous Version | Text Only | Print | Product List | Glossary Off
Versions: 1 2 3 4 5 6 7 8 9 10 11 12 13 14 15 16 17 18 19 20 21 22 23 24 25 26 27 28 29 30 31 32 33 34 35 36 37 38 39 40 41 42 43 44 45 46 47 48 49 50
582 FPUS82 KCHS 091712 OPUCHS TEST...KCHS/KSAV Gateway Observations...TEST National Weather Service Charleston SC 1200 PM EST FRI DEC 09 2016 NOTE: "fair" indicates few or no clouds below 12,000 feet with no significant weather and/or obstructions to visibility. SCZ050-WAZ558-NCZ071-TXZ119-213-PAZ071-DCZ001-FLZ074-172-MI076- NYZ176-178-MAZ016-IL014-TNZ027-NJZ106-GAZ044-MD014-091800- ...Gateway Observations for Charleston International... CITY SKY/WX TMP DP RH WIND PRES REMARKS Chas Airport MOSUNNY 49 18 29 N12 30.40F Seattle LGT RAIN 33 30 88 E17G23 29.97S FOG WCI 22 Charlotte SUNNY 40 15 36 NW8 30.42F WCI 34 Dallas DFW CLOUDY 35 11 36 VRB6 30.64F WCI 30 Dallas Love CLOUDY 35 12 38 E8 30.66F WCI 29 Philladelphia PTSUNNY 37 17 44 W20 30.22F WCI 27 Wash National MOSUNNY 39 17 41 NW15G25 30.33F WCI 31 Baltimore MOSUNNY 37 17 44 W18 30.29F WCI 27 Miami PTSUNNY 72 63 73 N9G21 30.19F Detroit PTSUNNY 32 20 61 W13 30.38F WCI 22 Newark MOSUNNY 39 17 41 NW16G35 30.12F WCI 30 Laguardia MOSUNNY 40 19 43 NW18G30 30.10F WCI 31 J F K MOSUNNY 40 17 39 NW20G29 30.11F WCI 30 Boston Logan MOSUNNY 36 14 40 NW18G24 29.95F WCI 26 Ft. Lauderdale CLOUDY 74 64 71 N10 30.18F Chicago O`Hare FLURRIES 24 16 71 W10 30.52F WCI 14 Chicago Midway FLURRIES 26 14 60 W10 30.53F WCI 16 Houston Bush MOSUNNY 42 23 46 NE9 30.60F Houston Hobby MOSUNNY 45 25 45 NE14 30.59S Nashville MOSUNNY 32 15 49 VRB3 30.61F Atlanta SUNNY 38 17 42 N15 30.47F WCI 29 $$ GAZ044-118-TXZ119-213-NCZ071-DCZ001-MDZ014-506-PAZ021-071-NJZ106- NYZ176-178-MAZ106-OHZ011-021-055-MIZ076-KYZ091-ILZ014-INZ047- MNZ060-091800- ...Gateway Observations for Savannah International... CITY SKY/WX TMP DP RH WIND PRES REMARKS Savannah Arpt MOSUNNY 50 19 29 N6 30.41F Atlanta SUNNY 38 17 42 N15 30.47F WCI 29 Charlotte SUNNY 40 15 36 NW8 30.42F WCI 34 Dallas DFW CLOUDY 35 11 36 VRB6 30.64F WCI 30 Houston Bush MOSUNNY 42 23 46 NE9 30.60F Wash National MOSUNNY 39 17 41 NW15G25 30.33F WCI 31 Wash Dulles MOSUNNY 35 16 45 NW21G31 30.33S WCI 24 Baltimore MOSUNNY 37 17 44 W18 30.29F WCI 27 Philadelphia PTSUNNY 37 17 44 W20 30.22F WCI 27 Newark MOSUNNY 39 17 41 NW16G35 30.12F WCI 30 Laguardia MOSUNNY 40 19 43 NW18G30 30.10F WCI 31 J F K MOSUNNY 40 17 39 NW20G29 30.11F WCI 30 Boston MOSUNNY 36 14 40 NW18G24 29.95F WCI 26 Pittsburg CLOUDY 26 18 71 W10 30.35F WCI 16 Akron LGT SNOW 26 18 71 W15 30.37S WCI 14 Cleveland CLOUDY 29 19 66 SW16 30.41F WCI 17 Cincinnati FLURRIES 23 13 65 W12 30.54F WCI 12 Columbus N/A 27 17 64 W15 30.48F WCI 16 Detroit PTSUNNY 32 20 61 W13 30.38F WCI 22 Chicago O`Hare FLURRIES 24 16 71 W10 30.52F WCI 14 Minneapolis PTSUNNY 15 8 73 VRB6 30.56S WCI 6 Indianapolis PTSUNNY 27 16 63 W9 30.54F WCI 18 $$

USA.gov is the U.S. government's official web portal to all federal, state and local government web resources and services.